Weather History for Duluth, MN

Change the Weather History Date:

Monday, March 4, 2013

  Actual Average Record
Temperature  
Mean Temperature 24 °F 21 °F  
Max Temperature 27 °F 30 °F 56 °F (2000)
Min Temperature 21 °F 13 °F -18 °F (1875)
Degree Days  
Heating Degree Days 41 44  
Month to date heating degree days 200 178  
Since 1 July heating degree days 6708 7045  
Cooling Degree Days 0 0  
Month to date cooling degree days 0 0  
Year to date cooling degree days 0 0  
Moisture  
Dew Point 18 °F    
Average Humidity 64    
Maximum Humidity 77    
Minimum Humidity 50    
Precipitation  
Precipitation T in 0.04 in 1.00 in (1894)
Month to date precipitation T 0.17  
Year to date precipitation 2.55 1.94  
Snow  
Snow 0.10 in 0.50 in 12.00 in (1985)
Month to date snowfall 0.1 2.2  
Since 1 July snowfall 52.9 67.8  
Snow Depth 13.00 in    
Sea Level Pressure  
Sea Level Pressure 30.08 in    
Wind  
Wind Speed 15 mph (East)    
Max Wind Speed 24 mph    
Max Gust Speed 31 mph    
Visibility 6 miles    
Events Snow    
T = Trace of Precipitation, MM = Missing Value Source: NWS Daily Summary

Daily Weather History Graph

Daily Weather History Graph

Search for Another Location

Airport:

Trip Planner

Search our weather history database for the weather conditions in past years. The results will help you decide how hot, cold, wet, or windy it might be!

Date:

Astronomy

Mar. 04, 2013 Rise Set
Actual Time 6:42 AM CST 5:59 PM CST
Civil Twilight 6:12 AM CST 6:29 PM CST
Nautical Twilight 5:36 AM CST 7:04 PM CST
Astronomical Twilight 5:01 AM CST 7:40 PM CST
Moon 1:08 AM CST (3/4) 10:25 AM CST (3/4)
Length of Visible Light 12h 17m
Length of Day
11h 16m
Waning Gibbous, 52% of the Moon is Illuminated
Mar 4
Waning Gibbous
Mar 4
Last Quarter
Mar 11
New
Mar 19
First Quarter
Mar 27
Full

Hourly Weather History & Observations

Time (CST) Temp. Windchill Dew Point Humidity Pressure Visibility Wind Dir Wind Speed Gust Speed Precip Events Conditions
12:55 AM 21.9 °F 9.8 °F 15.1 °F 75% 30.11 in 10.0 mi East 12.7 mph - N/A   Mostly Cloudy
1:55 AM 21.9 °F 9.2 °F 15.1 °F 75% 30.11 in 10.0 mi East 13.8 mph - N/A   Mostly Cloudy
2:55 AM 21.9 °F 8.7 °F 16.0 °F 78% 30.10 in 10.0 mi East 15.0 mph - N/A   Mostly Cloudy
3:55 AM 21.9 °F 9.2 °F 16.0 °F 78% 30.10 in 10.0 mi East 13.8 mph - N/A   Overcast
4:55 AM 21.9 °F 9.2 °F 16.0 °F 78% 30.10 in 10.0 mi East 13.8 mph - N/A   Overcast
5:55 AM 21.9 °F 9.8 °F 15.1 °F 75% 30.10 in 10.0 mi East 12.7 mph - N/A   Mostly Cloudy
6:55 AM 21.9 °F 9.8 °F 12.9 °F 68% 30.11 in 10.0 mi East 12.7 mph - N/A   Mostly Cloudy
7:55 AM 21.9 °F 9.8 °F 14.0 °F 72% 30.12 in 10.0 mi East 12.7 mph - N/A   Mostly Cloudy
8:55 AM 23.0 °F 9.2 °F 14.0 °F 68% 30.12 in 10.0 mi East 17.3 mph - N/A   Mostly Cloudy
9:55 AM 23.0 °F 10.1 °F 14.0 °F 68% 30.12 in 10.0 mi ESE 15.0 mph - N/A   Overcast
10:55 AM 25.0 °F 13.1 °F 12.9 °F 60% 30.12 in 10.0 mi East 13.8 mph - N/A   Overcast
11:55 AM 26.1 °F 13.6 °F 15.1 °F 63% 30.11 in 10.0 mi East 16.1 mph - N/A   Mostly Cloudy
12:55 PM 26.1 °F 13.1 °F 10.9 °F 53% 30.09 in 10.0 mi East 17.3 mph - N/A   Mostly Cloudy
1:55 PM 26.1 °F 12.0 °F 15.1 °F 63% 30.07 in 10.0 mi ENE 20.7 mph 26.5 mph N/A   Overcast
2:55 PM 25.0 °F 9.9 °F 16.0 °F 69% 30.08 in 10.0 mi East 23.0 mph - N/A   Overcast
3:55 PM 25.0 °F 11.3 °F 18.0 °F 75% 30.09 in 10.0 mi East 18.4 mph 25.3 mph N/A   Overcast
4:55 PM 24.1 °F 9.8 °F 18.0 °F 77% 30.09 in 3.0 mi East 19.6 mph 25.3 mph 0.00 in Snow Light Snow
5:14 PM 24.8 °F 11.1 °F 19.4 °F 80% 30.01 in 2.0 mi ENE 18.4 mph 27.6 mph 0.00 in Snow Light Snow
5:20 PM 24.8 °F 10.3 °F 19.4 °F 80% 30.01 in 0.8 mi ENE 20.7 mph 27.6 mph 0.00 in Snow Light Snow
5:33 PM 24.8 °F 11.5 °F 19.4 °F 80% 30.01 in 1.2 mi ENE 17.3 mph - 0.00 in Snow Light Snow
5:55 PM 24.1 °F 9.8 °F 19.9 °F 84% 30.10 in 1.5 mi East 19.6 mph 26.5 mph 0.00 in Snow Light Snow
6:00 PM 24.8 °F 11.1 °F 19.4 °F 80% 30.02 in 2.0 mi ENE 18.4 mph 26.5 mph N/A Snow Light Snow
6:12 PM 24.8 °F 12.4 °F 19.4 °F 80% 30.02 in 2.5 mi East 15.0 mph 28.8 mph 0.00 in Snow Light Snow
6:19 PM 24.8 °F 11.9 °F 19.4 °F 80% 30.02 in 2.0 mi ENE 16.1 mph 23.0 mph 0.00 in Snow Light Snow
6:44 PM 24.8 °F 10.7 °F 21.2 °F 86% 30.02 in 1.5 mi ENE 19.6 mph 25.3 mph 0.00 in Snow Light Snow
6:55 PM 24.1 °F 10.6 °F 21.0 °F 88% 30.11 in 1.0 mi East 17.3 mph 27.6 mph 0.00 in Snow Light Snow
7:55 PM 25.0 °F 11.3 °F 21.9 °F 88% 30.09 in 1.5 mi East 18.4 mph 27.6 mph 0.00 in Snow Light Snow
8:55 PM 26.1 °F 13.1 °F 21.9 °F 84% 30.10 in 1.0 mi East 17.3 mph 27.6 mph 0.01 in Snow Light Snow
9:31 PM 26.6 °F 14.3 °F 21.2 °F 80% 30.03 in 2.0 mi East 16.1 mph 26.5 mph 0.02 in Snow Light Snow
9:55 PM 26.1 °F 13.1 °F 21.9 °F 84% 30.11 in 3.0 mi East 17.3 mph 27.6 mph 0.03 in Snow Light Snow
10:05 PM 26.6 °F 13.8 °F 21.2 °F 80% 30.04 in 2.5 mi East 17.3 mph - 0.00 in Snow Light Snow
10:19 PM 26.6 °F 14.3 °F 21.2 °F 80% 30.04 in 1.8 mi East 16.1 mph 28.8 mph 0.00 in Snow Light Snow
10:34 PM 26.6 °F 14.7 °F 21.2 °F 80% 30.05 in 2.0 mi East 15.0 mph - 0.00 in Snow Light Snow
10:48 PM 26.6 °F 14.7 °F 21.2 °F 80% 30.04 in 2.0 mi East 15.0 mph 26.5 mph 0.01 in Snow Light Snow
10:55 PM 26.1 °F 14.0 °F 21.9 °F 84% 30.12 in 2.0 mi East 15.0 mph 23.0 mph 0.01 in Snow Light Snow
11:00 PM 26.6 °F 13.4 °F 21.2 °F 80% 30.04 in 3.0 mi East 18.4 mph - 0.01 in Snow Light Snow
11:30 PM 24.8 °F 11.5 °F 21.2 °F 86% 30.04 in 8.0 mi East 17.3 mph - 0.01 in Snow Light Snow
11:55 PM 25.0 °F 12.6 °F 21.9 °F 88% 30.12 in 8.0 mi East 15.0 mph - 0.01 in Snow Light Snow